EN

Hourly Weather Aalsmeer

Today, 12 June, Saturday

Time Temperature Precipitation Wind Pressure Humidity
00:00 +16°C° 0 mm 3 mps 763 mmHg 92%
01:00 +16°C° 0 mm 3 mps 763 mmHg 92%
02:00 +17°C° 0 mm 3 mps 763 mmHg 91%
03:00 +17°C° 0 mm 3 mps 763 mmHg 91%
04:00 +17°C° 0 mm 3 mps 763 mmHg 85%
05:00 +17°C° 0 mm 4 mps 763 mmHg 80%
06:00 +17°C° 0 mm 4 mps 764 mmHg 74%
07:00 +18°C° 0 mm 4 mps 764 mmHg 69%
08:00 +19°C° 0 mm 5 mps 764 mmHg 64%
09:00 +19°C° 0 mm 5 mps 765 mmHg 59%
10:00 +19°C° 0 mm 5 mps 765 mmHg 56%
11:00 +20°C° 0 mm 5 mps 765 mmHg 54%
12:00 +20°C° 0 mm 6 mps 766 mmHg 51%
13:00 +19°C° 0 mm 6 mps 766 mmHg 52%
14:00 +19°C° 0 mm 6 mps 767 mmHg 53%
15:00 +17°C° 0 mm 6 mps 767 mmHg 54%
16:00 +17°C° 0 mm 6 mps 767 mmHg 57%
17:00 +16°C° 0 mm 5 mps 768 mmHg 60%
18:00 +15°C° 0 mm 4 mps 768 mmHg 62%
19:00 +14°C° 0 mm 4 mps 768 mmHg 69%
20:00 +12°C° 0 mm 3 mps 769 mmHg 76%
21:00 +12°C° 0 mm 2 mps 769 mmHg 83%
22:00 +12°C° 0 mm 2 mps 769 mmHg 84%
23:00 +12°C° 0 mm 2 mps 769 mmHg 85%

Tomorrow, 13 June, Sunday

Time Temperature Precipitation Wind Pressure Humidity
00:00 +10°C° 0 mm 2 mps 770 mmHg 86%
01:00 +10°C° 0 mm 2 mps 770 mmHg 86%
02:00 +10°C° 0 mm 2 mps 770 mmHg 86%
03:00 +11°C° 0 mm 1 mps 770 mmHg 86%
04:00 +12°C° 0 mm 1 mps 770 mmHg 80%
05:00 +13°C° 0 mm 1 mps 770 mmHg 74%
06:00 +15°C° 0 mm 1 mps 770 mmHg 68%
07:00 +16°C° 0 mm 1 mps 771 mmHg 63%
08:00 +18°C° 0 mm 2 mps 771 mmHg 57%
09:00 +19°C° 0 mm 2 mps 771 mmHg 51%
10:00 +20°C° 0 mm 2 mps 771 mmHg 50%
11:00 +21°C° 0 mm 3 mps 771 mmHg 48%
12:00 +22°C° 0 mm 3 mps 771 mmHg 47%
13:00 +22°C° 0 mm 3 mps 770 mmHg 47%
14:00 +22°C° 0 mm 3 mps 770 mmHg 48%
15:00 +22°C° 0 mm 3 mps 770 mmHg 49%
16:00 +21°C° 0 mm 3 mps 770 mmHg 52%
17:00 +21°C° 0 mm 2 mps 769 mmHg 56%
18:00 +20°C° 0 mm 2 mps 769 mmHg 59%
19:00 +19°C° 0 mm 1 mps 769 mmHg 65%
20:00 +18°C° 0 mm 1 mps 769 mmHg 71%
21:00 +15°C° 0 mm 1 mps 769 mmHg 77%
22:00 +15°C° 0 mm 1 mps 769 mmHg 79%
23:00 +14°C° 0 mm 1 mps 769 mmHg 80%

Day after tomorrow, 14 June, Monday

Time Temperature Precipitation Wind Pressure Humidity
00:00 +14°C° 0 mm 2 mps 768 mmHg 82%
01:00 +14°C° 0 mm 2 mps 768 mmHg 84%
02:00 +14°C° 0 mm 2 mps 768 mmHg 85%
03:00 +14°C° 0 mm 2 mps 767 mmHg 87%
04:00 +15°C° 0 mm 2 mps 767 mmHg 82%
05:00 +16°C° 0 mm 2 mps 767 mmHg 77%
06:00 +18°C° 0 mm 3 mps 767 mmHg 71%
07:00 +19°C° 0 mm 3 mps 767 mmHg 64%
08:00 +21°C° 0 mm 3 mps 767 mmHg 57%
09:00 +24°C° 0 mm 3 mps 766 mmHg 50%
10:00 +25°C° 0 mm 3 mps 766 mmHg 48%
11:00 +26°C° 0 mm 3 mps 766 mmHg 46%
12:00 +26°C° 0 mm 3 mps 766 mmHg 43%
13:00 +26°C° 0 mm 3 mps 765 mmHg 45%
14:00 +26°C° 0 mm 3 mps 765 mmHg 46%
15:00 +26°C° 0 mm 3 mps 765 mmHg 47%
16:00 +25°C° 0 mm 3 mps 765 mmHg 53%
17:00 +24°C° 0 mm 3 mps 765 mmHg 59%
18:00 +22°C° 0 mm 3 mps 765 mmHg 65%
19:00 +20°C° 0 mm 3 mps 765 mmHg 72%
20:00 +18°C° 0 mm 2 mps 765 mmHg 79%
21:00 +17°C° 0 mm 2 mps 765 mmHg 87%
22:00 +17°C° 0 mm 2 mps 765 mmHg 88%
23:00 +16°C° 0 mm 2 mps 765 mmHg 89%

15 June, Tuesday

Time Temperature Precipitation Wind Pressure Humidity
00:00 +16°C° 0 mm 2 mps 765 mmHg 90%
01:00 +16°C° 0 mm 2 mps 765 mmHg 89%
02:00 +17°C° 0 mm 2 mps 765 mmHg 88%
03:00 +17°C° 0 mm 2 mps 765 mmHg 86%
04:00 +17°C° 0.1 mm 2 mps 765 mmHg 87%
05:00 +17°C° 0.1 mm 2 mps 765 mmHg 87%
06:00 +17°C° 0.1 mm 2 mps 765 mmHg 87%
07:00 +17°C° 0.2 mm 2 mps 766 mmHg 87%
08:00 +17°C° 0.2 mm 2 mps 766 mmHg 88%
09:00 +18°C° 0.2 mm 1 mps 766 mmHg 89%
10:00 +18°C° 0 mm 2 mps 766 mmHg 84%
11:00 +19°C° 0 mm 2 mps 766 mmHg 79%
12:00 +20°C° 0 mm 2 mps 766 mmHg 73%
13:00 +20°C° 0 mm 2 mps 765 mmHg 70%
14:00 +21°C° 0 mm 2 mps 765 mmHg 66%
15:00 +23°C° 0 mm 2 mps 765 mmHg 63%
16:00 +21°C° 0 mm 2 mps 765 mmHg 64%
17:00 +21°C° 0 mm 2 mps 764 mmHg 65%
18:00 +21°C° 0 mm 2 mps 764 mmHg 66%
19:00 +19°C° 0 mm 2 mps 764 mmHg 71%
20:00 +18°C° 0 mm 2 mps 764 mmHg 76%
21:00 +16°C° 0 mm 2 mps 764 mmHg 82%
22:00 +16°C° 0 mm 2 mps 764 mmHg 83%
23:00 +15°C° 0 mm 2 mps 763 mmHg 85%

16 June, Wednesday

Time Temperature Precipitation Wind Pressure Humidity
00:00 +15°C° 0 mm 2 mps 763 mmHg 87%
01:00 +15°C° 0 mm 2 mps 763 mmHg 89%
02:00 +15°C° 0 mm 2 mps 762 mmHg 90%
03:00 +15°C° 0 mm 2 mps 762 mmHg 91%
04:00 +16°C° 0 mm 2 mps 762 mmHg 87%
05:00 +18°C° 0 mm 2 mps 761 mmHg 83%
06:00 +19°C° 0 mm 2 mps 761 mmHg 79%
07:00 +21°C° 0 mm 2 mps 761 mmHg 73%
08:00 +24°C° 0 mm 2 mps 761 mmHg 66%
09:00 +26°C° 0 mm 2 mps 761 mmHg 60%
10:00 +27°C° 0 mm 2 mps 760 mmHg 56%
11:00 +28°C° 0 mm 2 mps 760 mmHg 52%
12:00 +30°C° 0 mm 2 mps 760 mmHg 49%
13:00 +30°C° 0 mm 2 mps 759 mmHg 46%
14:00 +31°C° 0 mm 2 mps 759 mmHg 44%
15:00 +31°C° 0 mm 3 mps 759 mmHg 42%
16:00 +30°C° 0 mm 2 mps 758 mmHg 46%
17:00 +30°C° 0 mm 2 mps 758 mmHg 50%
18:00 +29°C° 0 mm 2 mps 758 mmHg 54%
19:00 +27°C° 0 mm 2 mps 758 mmHg 59%
20:00 +26°C° 0 mm 2 mps 758 mmHg 63%
21:00 +24°C° 0 mm 3 mps 758 mmHg 68%
22:00 +22°C° 0 mm 3 mps 757 mmHg 70%
23:00 +22°C° 0 mm 3 mps 757 mmHg 72%

17 June, Thursday

Time Temperature Precipitation Wind Pressure Humidity
00:00 +21°C° 0 mm 3 mps 757 mmHg 74%
01:00 +21°C° 0 mm 3 mps 757 mmHg 75%
02:00 +21°C° 0 mm 3 mps 756 mmHg 76%
03:00 +21°C° 0 mm 3 mps 756 mmHg 76%
04:00 +22°C° 0 mm 3 mps 756 mmHg 77%
05:00 +22°C° 0 mm 3 mps 757 mmHg 78%
06:00 +24°C° 0 mm 3 mps 757 mmHg 79%
07:00 +25°C° 0 mm 3 mps 757 mmHg 74%
08:00 +27°C° 0 mm 4 mps 757 mmHg 69%
09:00 +28°C° 0 mm 4 mps 758 mmHg 64%
10:00 +28°C° 0.1 mm 4 mps 757 mmHg 64%
11:00 +28°C° 0.1 mm 3 mps 757 mmHg 64%
12:00 +28°C° 0.1 mm 3 mps 757 mmHg 64%
13:00 +28°C° 0.3 mm 3 mps 757 mmHg 64%
14:00 +28°C° 0.3 mm 3 mps 757 mmHg 64%
15:00 +28°C° 0.3 mm 3 mps 757 mmHg 64%
16:00 +28°C° 0 mm 3 mps 757 mmHg 63%
17:00 +28°C° 0 mm 2 mps 757 mmHg 63%
18:00 +28°C° 0 mm 2 mps 756 mmHg 63%
19:00 +26°C° 0 mm 2 mps 757 mmHg 71%
20:00 +24°C° 0 mm 2 mps 757 mmHg 80%
21:00 +21°C° 0 mm 2 mps 758 mmHg 88%
22:00 +21°C° 0.3 mm 2 mps 758 mmHg 90%
23:00 +20°C° 0.3 mm 2 mps 758 mmHg 92%
Show more